CZ-4C R/B, 41728

Orbit data source: Space-Track

CZ-4C R/B, 41728 is space debris in SSO originally from a launch on Tue, 09 Aug 2016 UTC launched from the Taiyaun Space Center, China (TSC). Debris objects in space refer to the collection of defunct objects orbiting the Earth. Examples of debris include non-operational satellites, rocket bodies, and fragments generated from explosions, collisions, or faulty payload assembly.

Loading next visibility...
Identifier
41728, 2016-049B
Orbit
SSO
Country
Flag of CNCN / PRC
Related business
Manufacturer
SAST
Mission
Spacecraft
Bus & Motor
CZ-4 STAGE 3, Unknown motor
Mass
~1,000 kg wet, ~1,000 kg dry
Launch date (UTC)
2016-08-09 (9 years ago)
Launch vehicle
Unknown
Launch site
Taiyaun Space Center, China (TSC)
Object type
Payload
Rocket body
Debris
Shape & HBR
Cyl, 1.4 m
Radar Cross Section
20.385 m², Large (>1 m²)

Expand to show TLE details & history
Last TLE update: 21 hours ago

TLE from 21 hours ago
0 CZ-4C R/B
1 41728U 16049B   25249.21223688  .00001139  00000-0  17997-3 0  9996
2 41728  97.9998 315.8831 0099019  17.7177 342.7442 14.71068745486379
Epoch: 2025-09-06T05:05Z
TLE epoch observation values (Epoch: 2025-09-06T05:05:37.266Z)
Latitude
-0.00008°
Longitude
-106.07147°
Altitude
594.18 km
Speed
7.598 km/s
True Right ascension
21h 03m 31s
True Declination
0° 00' 00"
Sunlit
Object was in full shadow at epoch
Visualization orbit readout
Latitude
Unknown
Longitude
Unknown
Altitude
Unknown
Speed
Unknown
Apparent Right ascension
Unknown
Apparent Declination
Unknown
Sunlit
N/A
Visualization observer readout
Local Sidereal Time
18:08:06
Azimuth
Unknown
Elevation
Unknown
Doppler factor
Unknown
Orbital elements
Apogee altitude
724.354 km
Perigee altitude
585.077 km
Semi-major axis
7,032.852 km
Eccentricity
0.0099
Inclination
97.9998°
RAAN
315.8831°
Arg. of periapsis
17.7177°
True anomaly
342.40359°
Mean anomaly
342.7442°
Eccentric anomaly
342.5743°
Mean motion
3.67998 °/min
Orbital period
97.83 mins
BSTAR
0.00017997
Loading maneuver chart data...
Computing Atmospheric mass density...
Loading historical data...
Loading historical data...
Loading historical data...
Loading historical data...
Loading historical data...
Loading historical data...
Loading historical data...
Other satellites on launch #49 in the year 2016 (2016-08-09 UTC)

Documentation

Showing up to 5 results
|